Time,TemperatureF,DewpointF,PressureIn,WindDirection,WindDirectionDegrees,WindSpeedMPH,WindSpeedGustMPH,Humidity,HourlyPrecipIn,Conditions,Clouds,dailyrainin,SoftwareType,DateUTC
2013-05-24 00:02:00,46.0,41.0,30.26,East,85,1.0,5.0,82,0.00,,,0.02,,2013-05-24 05:02:00,
2013-05-24 00:12:00,46.0,41.0,30.26,East,85,1.0,5.0,82,0.00,,,0.02,,2013-05-24 05:12:00,
2013-05-24 00:22:00,45.0,40.0,30.26,East,88,0.0,2.0,81,0.00,,,0.02,,2013-05-24 05:22:00,
2013-05-24 00:32:00,45.0,39.0,30.25,East,92,0.0,2.0,80,0.00,,,0.02,,2013-05-24 05:32:00,
2013-05-24 00:42:00,45.0,39.0,30.25,East,92,0.0,2.0,80,0.00,,,0.02,,2013-05-24 05:42:00,
2013-05-24 00:52:00,45.0,40.0,30.27,East,92,0.0,1.0,82,0.00,,,0.02,,2013-05-24 05:52:00,
2013-05-24 01:02:00,44.0,39.0,30.27,East,92,0.0,1.0,82,0.00,,,0.02,,2013-05-24 06:02:00,
2013-05-24 01:12:00,44.0,39.0,30.27,East,92,0.0,1.0,82,0.00,,,0.02,,2013-05-24 06:12:00,
2013-05-24 01:21:00,43.0,38.0,30.27,East,92,0.0,1.0,83,0.00,,,0.02,,2013-05-24 06:21:00,
2013-05-24 01:32:00,43.0,38.0,30.28,NNE,17,0.0,3.0,83,0.00,,,0.02,,2013-05-24 06:32:00,
2013-05-24 01:42:00,43.0,38.0,30.28,NNE,17,0.0,3.0,83,0.00,,,0.02,,2013-05-24 06:42:00,
2013-05-24 01:52:00,43.0,37.0,30.28,ENE,68,0.0,4.0,80,0.00,,,0.02,,2013-05-24 06:52:00,
2013-05-24 02:01:00,42.0,36.0,30.28,SE,130,2.0,8.0,78,0.00,,,0.02,,2013-05-24 07:01:00,
2013-05-24 02:11:00,42.0,36.0,30.28,SE,130,2.0,8.0,78,0.00,,,0.02,,2013-05-24 07:11:00,
2013-05-24 02:22:00,42.0,36.0,30.29,NE,55,1.0,5.0,79,0.00,,,0.02,,2013-05-24 07:22:00,
2013-05-24 02:32:00,42.0,37.0,30.30,NE,36,0.0,2.0,83,0.00,,,0.02,,2013-05-24 07:32:00,
2013-05-24 02:42:00,42.0,37.0,30.30,NE,36,0.0,2.0,83,0.00,,,0.02,,2013-05-24 07:42:00,
2013-05-24 02:52:00,41.0,37.0,30.31,NE,36,0.0,1.0,86,0.00,,,0.02,,2013-05-24 07:52:00,
2013-05-24 03:02:00,41.0,38.0,30.31,NE,36,0.0,2.0,88,0.00,,,0.02,,2013-05-24 08:02:00,
2013-05-24 03:11:00,41.0,38.0,30.31,NE,36,0.0,2.0,88,0.00,,,0.02,,2013-05-24 08:11:00,
2013-05-24 03:22:00,40.0,37.0,30.32,NE,36,0.0,1.0,89,0.00,,,0.02,,2013-05-24 08:22:00,
2013-05-24 03:32:00,40.0,37.0,30.32,NE,36,0.0,0.0,89,0.00,,,0.02,,2013-05-24 08:32:00,
2013-05-24 03:42:00,40.0,37.0,30.32,NE,36,0.0,0.0,89,0.00,,,0.02,,2013-05-24 08:42:00,
2013-05-24 03:52:00,40.0,37.0,30.32,NE,36,0.0,0.0,89,0.00,,,0.02,,2013-05-24 08:52:00,
2013-05-24 04:02:00,39.0,36.0,30.32,NE,36,0.0,0.0,90,0.00,,,0.02,,2013-05-24 09:02:00,
2013-05-24 04:11:00,39.0,36.0,30.32,NE,36,0.0,0.0,90,0.00,,,0.02,,2013-05-24 09:11:00,
2013-05-24 04:21:00,39.0,37.0,30.32,NE,36,0.0,1.0,91,0.00,,,0.02,,2013-05-24 09:21:00,
2013-05-24 04:32:00,39.0,37.0,30.32,NE,36,0.0,3.0,91,0.00,,,0.02,,2013-05-24 09:32:00,
2013-05-24 04:42:00,39.0,37.0,30.32,NE,36,0.0,3.0,91,0.00,,,0.02,,2013-05-24 09:42:00,
2013-05-24 04:52:00,38.0,35.0,30.32,NNE,22,0.0,4.0,90,0.00,,,0.02,,2013-05-24 09:52:00,
2013-05-24 05:03:00,39.0,36.0,30.32,NNW,342,0.0,4.0,89,0.00,,,0.02,,2013-05-24 10:03:00,
2013-05-24 05:12:00,39.0,36.0,30.32,NNW,342,0.0,4.0,89,0.00,,,0.02,,2013-05-24 10:12:00,
2013-05-24 05:22:00,39.0,36.0,30.32,NNE,26,0.0,3.0,89,0.00,,,0.02,,2013-05-24 10:22:00,
2013-05-24 05:32:00,39.0,36.0,30.33,North,350,0.0,3.0,90,0.00,,,0.02,,2013-05-24 10:32:00,
2013-05-24 05:42:00,39.0,36.0,30.33,North,350,0.0,3.0,90,0.00,,,0.02,,2013-05-24 10:42:00,
2013-05-24 05:52:00,38.0,35.0,30.33,NE,53,0.0,4.0,90,0.00,,,0.02,,2013-05-24 10:52:00,
2013-05-24 06:02:00,38.0,35.0,30.34,NE,52,1.0,3.0,89,0.00,,,0.02,,2013-05-24 11:02:00,
2013-05-24 06:12:00,38.0,35.0,30.34,NE,52,1.0,3.0,89,0.00,,,0.02,,2013-05-24 11:12:00,
2013-05-24 06:22:00,38.0,35.0,30.35,NE,48,0.0,2.0,90,0.00,,,0.02,,2013-05-24 11:22:00,
2013-05-24 06:32:00,38.0,36.0,30.37,NE,48,0.0,2.0,91,0.00,,,0.02,,2013-05-24 11:32:00,
2013-05-24 06:42:00,38.0,36.0,30.37,NE,48,0.0,2.0,91,0.00,,,0.02,,2013-05-24 11:42:00,
2013-05-24 06:51:00,39.0,37.0,30.38,NE,48,0.0,2.0,91,0.00,,,0.02,,2013-05-24 11:51:00,
2013-05-24 07:02:00,41.0,37.0,30.37,NE,43,2.0,5.0,86,0.00,,,0.02,,2013-05-24 12:02:00,
2013-05-24 07:11:00,41.0,37.0,30.37,NE,43,2.0,5.0,86,0.00,,,0.02,,2013-05-24 12:11:00,
2013-05-24 07:21:00,42.0,38.0,30.38,NE,53,1.0,5.0,84,0.00,,,0.02,,2013-05-24 12:21:00,
2013-05-24 07:32:00,43.0,38.0,30.39,NNE,32,3.0,6.0,81,0.00,,,0.02,,2013-05-24 12:32:00,
2013-05-24 07:42:00,43.0,38.0,30.39,NNE,32,3.0,6.0,81,0.00,,,0.02,,2013-05-24 12:42:00,
2013-05-24 07:52:00,44.0,38.0,30.40,NE,55,4.0,7.0,80,0.00,,,0.02,,2013-05-24 12:52:00,
2013-05-24 08:02:00,44.0,37.0,30.40,NNE,19,3.0,6.0,75,0.00,,,0.02,,2013-05-24 13:02:00,
2013-05-24 08:11:00,44.0,37.0,30.40,NNE,19,3.0,6.0,75,0.00,,,0.02,,2013-05-24 13:11:00,
2013-05-24 08:21:00,45.0,37.0,30.40,ENE,73,4.0,8.0,73,0.00,,,0.02,,2013-05-24 13:21:00,
2013-05-24 08:32:00,45.0,37.0,30.41,NNE,32,5.0,9.0,72,0.00,,,0.02,,2013-05-24 13:32:00,
2013-05-24 08:42:00,45.0,37.0,30.41,NNE,32,5.0,9.0,72,0.00,,,0.02,,2013-05-24 13:42:00,
2013-05-24 08:52:00,46.0,37.0,30.41,NE,47,6.0,11.0,71,0.00,,,0.02,,2013-05-24 13:52:00,
2013-05-24 09:01:00,47.0,37.0,30.41,NNE,19,4.0,13.0,69,0.00,,,0.02,,2013-05-24 14:01:00,
2013-05-24 09:11:00,47.0,37.0,30.41,NNE,19,4.0,13.0,69,0.00,,,0.02,,2013-05-24 14:11:00,
2013-05-24 09:21:00,47.0,38.0,30.41,NNE,33,4.0,13.0,70,0.00,,,0.02,,2013-05-24 14:21:00,
2013-05-24 09:32:00,48.0,38.0,30.42,North,360,4.0,10.0,67,0.00,,,0.01,,2013-05-24 14:32:00,
2013-05-24 09:42:00,48.0,38.0,30.42,North,360,4.0,10.0,67,0.00,,,0.01,,2013-05-24 14:42:00,
2013-05-24 09:52:00,48.0,38.0,30.42,East,79,4.0,11.0,69,0.00,,,0.01,,2013-05-24 14:52:00,
2013-05-24 10:02:00,49.0,39.0,30.41,NNE,30,3.0,9.0,69,0.00,,,0.01,,2013-05-24 15:02:00,
2013-05-24 10:11:00,49.0,39.0,30.41,NNE,30,3.0,9.0,69,0.00,,,0.01,,2013-05-24 15:11:00,
2013-05-24 10:21:00,50.0,39.0,30.41,NNE,24,3.0,9.0,67,0.00,,,0.01,,2013-05-24 15:21:00,
2013-05-24 10:32:00,51.0,39.0,30.41,NE,51,5.0,13.0,64,0.00,,,0.01,,2013-05-24 15:32:00,
2013-05-24 10:43:00,51.0,39.0,30.41,NE,51,5.0,13.0,64,0.00,,,0.01,,2013-05-24 15:43:00,
2013-05-24 10:52:00,52.0,40.0,30.41,North,355,3.0,10.0,64,0.00,,,0.01,,2013-05-24 15:52:00,
2013-05-24 11:03:00,52.0,40.0,30.40,North,5,5.0,12.0,64,0.00,,,0.01,,2013-05-24 16:03:00,
2013-05-24 11:12:00,52.0,40.0,30.40,North,5,5.0,12.0,64,0.00,,,0.01,,2013-05-24 16:12:00,
2013-05-24 11:22:00,53.0,40.0,30.40,NNE,32,5.0,11.0,62,0.00,,,0.01,,2013-05-24 16:22:00,
2013-05-24 11:32:00,53.0,39.0,30.40,ENE,76,5.0,10.0,60,0.00,,,0.01,,2013-05-24 16:32:00,
2013-05-24 11:42:00,53.0,39.0,30.40,ENE,76,5.0,10.0,60,0.00,,,0.01,,2013-05-24 16:42:00,
2013-05-24 11:52:00,53.0,38.0,30.40,NE,48,1.0,10.0,57,0.00,,,0.01,,2013-05-24 16:52:00,
2013-05-24 12:02:00,54.0,40.0,30.40,NNE,29,1.0,9.0,60,0.00,,,0.01,,2013-05-24 17:02:00,
2013-05-24 12:12:00,54.0,40.0,30.40,NNE,29,1.0,9.0,60,0.00,,,0.01,,2013-05-24 17:12:00,
2013-05-24 12:22:00,55.0,40.0,30.40,ESE,120,3.0,9.0,57,0.00,,,0.01,,2013-05-24 17:22:00,
2013-05-24 12:32:00,55.0,41.0,30.40,North,5,5.0,9.0,58,0.00,,,0.01,,2013-05-24 17:32:00,
2013-05-24 12:42:00,55.0,41.0,30.40,North,5,5.0,9.0,58,0.00,,,0.01,,2013-05-24 17:42:00,
2013-05-24 12:52:00,56.0,41.0,30.39,NE,46,3.0,11.0,58,0.00,,,0.01,,2013-05-24 17:52:00,
2013-05-24 13:01:00,57.0,41.0,30.40,NE,36,7.0,14.0,55,0.00,,,0.01,,2013-05-24 18:01:00,
2013-05-24 13:12:00,57.0,41.0,30.40,NE,36,7.0,14.0,55,0.00,,,0.01,,2013-05-24 18:12:00,
2013-05-24 13:21:00,57.0,41.0,30.38,East,100,6.0,11.0,55,0.00,,,0.01,,2013-05-24 18:21:00,
2013-05-24 13:32:00,57.0,41.0,30.37,South,175,3.0,10.0,54,0.00,,,0.01,,2013-05-24 18:32:00,
2013-05-24 13:42:00,57.0,41.0,30.37,South,175,3.0,10.0,54,0.00,,,0.01,,2013-05-24 18:42:00,
2013-05-24 13:51:00,58.0,43.0,30.37,ESE,106,3.0,7.0,57,0.00,,,0.01,,2013-05-24 18:51:00,
2013-05-24 14:01:00,58.0,41.0,30.37,East,84,6.0,11.0,54,0.00,,,0.01,,2013-05-24 19:01:00,
2013-05-24 14:11:00,58.0,41.0,30.37,East,84,6.0,11.0,54,0.00,,,0.01,,2013-05-24 19:11:00,
2013-05-24 14:21:00,59.0,42.0,30.37,NNE,15,5.0,9.0,53,0.00,,,0.01,,2013-05-24 19:21:00,
2013-05-24 14:32:00,59.0,42.0,30.37,ESE,115,5.0,11.0,53,0.00,,,0.01,,2013-05-24 19:32:00,
2013-05-24 14:41:00,59.0,42.0,30.37,ESE,115,5.0,11.0,53,0.00,,,0.01,,2013-05-24 19:41:00,
2013-05-24 14:52:00,60.0,43.0,30.36,ENE,60,3.0,9.0,53,0.00,,,0.01,,2013-05-24 19:52:00,
2013-05-24 15:02:00,60.0,42.0,30.36,SE,140,3.0,11.0,52,0.00,,,0.01,,2013-05-24 20:02:00,
2013-05-24 15:11:00,60.0,42.0,30.36,SE,140,3.0,11.0,52,0.00,,,0.01,,2013-05-24 20:11:00,
2013-05-24 15:21:00,61.0,43.0,30.35,NE,47,2.0,12.0,51,0.00,,,0.01,,2013-05-24 20:21:00,
2013-05-24 15:32:00,61.0,43.0,30.34,ESE,122,2.0,11.0,51,0.00,,,0.01,,2013-05-24 20:32:00,
2013-05-24 15:42:00,61.0,43.0,30.34,ESE,122,2.0,11.0,51,0.00,,,0.01,,2013-05-24 20:42:00,
2013-05-24 15:52:00,61.0,41.0,30.33,ESE,111,3.0,10.0,48,0.00,,,0.01,,2013-05-24 20:52:00,
2013-05-24 16:01:00,62.0,43.0,30.32,ESE,119,5.0,10.0,49,0.00,,,0.01,,2013-05-24 21:01:00,
2013-05-24 16:11:00,62.0,43.0,30.32,ESE,119,5.0,10.0,49,0.00,,,0.01,,2013-05-24 21:11:00,
2013-05-24 16:21:00,62.0,43.0,30.31,East,97,3.0,8.0,49,0.00,,,0.01,,2013-05-24 21:21:00,
2013-05-24 16:32:00,63.0,42.0,30.31,SE,144,4.0,8.0,47,0.00,,,0.01,,2013-05-24 21:32:00,
2013-05-24 16:42:00,63.0,42.0,30.31,SE,144,4.0,8.0,47,0.00,,,0.01,,2013-05-24 21:42:00,
2013-05-24 16:53:00,63.0,42.0,30.31,NE,50,2.0,8.0,47,0.00,,,0.01,,2013-05-24 21:53:00,
2013-05-24 17:02:00,64.0,44.0,30.31,South,187,3.0,8.0,49,0.00,,,0.01,,2013-05-24 22:02:00,
2013-05-24 17:12:00,64.0,44.0,30.31,South,187,3.0,8.0,49,0.00,,,0.01,,2013-05-24 22:12:00,
2013-05-24 17:22:00,64.0,42.0,30.31,SSW,196,3.0,7.0,44,0.00,,,0.01,,2013-05-24 22:22:00,
2013-05-24 17:33:00,64.0,41.0,30.30,ESE,108,4.0,9.0,43,0.00,,,0.01,,2013-05-24 22:33:00,
2013-05-24 17:42:00,64.0,41.0,30.30,ESE,108,4.0,9.0,43,0.00,,,0.01,,2013-05-24 22:42:00,
2013-05-24 17:52:00,64.0,43.0,30.30,East,96,3.0,7.0,46,0.00,,,0.01,,2013-05-24 22:52:00,
2013-05-24 18:02:00,65.0,44.0,30.29,SSE,149,1.0,5.0,47,0.00,,,0.01,,2013-05-24 23:02:00,
2013-05-24 18:11:00,65.0,44.0,30.29,SSE,149,1.0,5.0,47,0.00,,,0.01,,2013-05-24 23:11:00,
2013-05-24 18:22:00,65.0,43.0,30.29,SSE,167,2.0,8.0,44,0.00,,,0.01,,2013-05-24 23:22:00,
2013-05-24 18:32:00,64.0,43.0,30.29,ESE,102,2.0,6.0,47,0.00,,,0.01,,2013-05-24 23:32:00,
2013-05-24 18:42:00,64.0,43.0,30.29,ESE,102,2.0,6.0,47,0.00,,,0.01,,2013-05-24 23:42:00,
2013-05-24 18:52:00,64.0,43.0,30.28,SSW,195,1.0,6.0,47,0.00,,,0.01,,2013-05-24 23:52:00,
2013-05-24 19:01:00,64.0,43.0,30.28,South,182,1.0,6.0,46,0.00,,,0.01,,2013-05-25 00:01:00,
2013-05-24 19:11:00,64.0,43.0,30.28,South,182,1.0,6.0,46,0.00,,,0.01,,2013-05-25 00:11:00,
2013-05-24 19:21:00,63.0,41.0,30.29,SE,139,2.0,5.0,45,0.00,,,0.01,,2013-05-25 00:21:00,
2013-05-24 19:32:00,63.0,44.0,30.29,SW,217,1.0,5.0,49,0.00,,,0.00,,2013-05-25 00:32:00,
2013-05-24 19:41:00,63.0,44.0,30.29,SW,217,1.0,5.0,49,0.00,,,0.00,,2013-05-25 00:41:00,
2013-05-24 19:51:00,62.0,42.0,30.29,SE,140,3.0,7.0,48,0.00,,,0.00,,2013-05-25 00:51:00,
2013-05-24 20:01:00,61.0,42.0,30.29,SE,134,1.0,6.0,50,0.00,,,0.00,,2013-05-25 01:01:00,
2013-05-24 20:11:00,61.0,42.0,30.29,SE,134,1.0,6.0,50,0.00,,,0.00,,2013-05-25 01:11:00,
2013-05-24 20:22:00,60.0,44.0,30.29,SSE,156,0.0,6.0,55,0.00,,,0.00,,2013-05-25 01:22:00,
2013-05-24 20:32:00,59.0,42.0,30.28,SE,142,1.0,5.0,54,0.00,,,0.00,,2013-05-25 01:32:00,
2013-05-24 20:42:00,59.0,42.0,30.28,SE,142,1.0,5.0,54,0.00,,,0.00,,2013-05-25 01:42:00,
2013-05-24 20:52:00,58.0,41.0,30.29,SE,145,1.0,4.0,53,0.00,,,0.00,,2013-05-25 01:52:00,
2013-05-24 21:02:00,57.0,41.0,30.29,SSE,148,0.0,5.0,54,0.00,,,0.00,,2013-05-25 02:02:00,
2013-05-24 21:11:00,57.0,41.0,30.29,SSE,148,0.0,5.0,54,0.00,,,0.00,,2013-05-25 02:11:00,
2013-05-24 21:21:00,57.0,42.0,30.30,SSE,151,1.0,5.0,58,0.00,,,0.00,,2013-05-25 02:21:00,
2013-05-24 21:32:00,56.0,43.0,30.30,South,170,0.0,3.0,62,0.00,,,0.00,,2013-05-25 02:32:00,
2013-05-24 21:42:00,56.0,43.0,30.30,South,170,0.0,3.0,62,0.00,,,0.00,,2013-05-25 02:42:00,
2013-05-24 21:51:00,55.0,43.0,30.31,South,185,0.0,3.0,63,0.00,,,0.00,,2013-05-25 02:51:00,
2013-05-24 22:02:00,54.0,43.0,30.32,South,171,0.0,6.0,67,0.00,,,0.00,,2013-05-25 03:02:00,
2013-05-24 22:11:00,54.0,43.0,30.32,South,171,0.0,6.0,67,0.00,,,0.00,,2013-05-25 03:11:00,
2013-05-24 22:21:00,54.0,42.0,30.32,SSE,162,0.0,3.0,63,0.00,,,0.00,,2013-05-25 03:21:00,
2013-05-24 22:32:00,53.0,40.0,30.34,ENE,69,1.0,5.0,62,0.00,,,0.00,,2013-05-25 03:32:00,
2013-05-24 22:43:00,53.0,40.0,30.34,ENE,69,1.0,5.0,62,0.00,,,0.00,,2013-05-25 03:43:00,
2013-05-24 22:53:00,52.0,39.0,30.34,SE,125,1.0,6.0,62,0.00,,,0.00,,2013-05-25 03:53:00,
2013-05-24 23:02:00,51.0,39.0,30.34,ESE,106,0.0,4.0,63,0.00,,,0.00,,2013-05-25 04:02:00,
2013-05-24 23:12:00,51.0,39.0,30.34,ESE,106,0.0,4.0,63,0.00,,,0.00,,2013-05-25 04:12:00,
2013-05-24 23:23:00,51.0,38.0,30.35,ESE,105,1.0,4.0,60,0.00,,,0.00,,2013-05-25 04:23:00,
2013-05-24 23:33:00,50.0,37.0,30.35,SSE,148,0.0,4.0,61,0.00,,,0.00,,2013-05-25 04:33:00,
2013-05-24 23:43:00,50.0,37.0,30.35,SSE,148,0.0,4.0,61,0.00,,,0.00,,2013-05-25 04:43:00,
2013-05-24 23:52:00,50.0,38.0,30.35,SE,125,0.0,4.0,63,0.00,,,0.00,,2013-05-25 04:52:00,